Location: Newark
(49.5647°N, 8.2922°E)
Time: 09:02:11
(UTC+00:00)

Transit 2A - Pass Details

Date: 21 February 2020
Orbit: 597 x 962 km, 66.7° (Epoch: 08 April)

Event Time Altitude Azimuth Distance (km) Brightness Sun altitude
Rises 18:01:52 0° 321° (NW) 2,946 9.6 -11.5°
Reaches altitude 10° 18:05:47 10° 355° (N) 2,108 8.3 -12.1°
Maximum altitude 18:07:25 12° 15° (NNE) 2,036 8.0 -12.4°
Drops below altitude 10° 18:09:06 10° 36° (NE) 2,178 8.0 -12.6°
Enters shadow 18:09:56 - 44° (NE) 2,321 8.1 -12.8°
Sets 18:13:21 0° 68° (ENE) 3,200 - -13.3°
